Location: Arrington
(35.8681°N, 86.7092°W)
Time: 10:15:58
(UTC+00:00)

Longmarch 3A Rocket - Pass Details

Date: 23 November 2019
Orbit: 242 x 22762 km, 27.3° (Epoch: 05 December)

Event Time Altitude Azimuth Distance (km) Brightness Sun altitude
Exits shadow 11:29:40 - 216° (SW) 1,193 3.4 -12.4°
Reaches altitude 10° 11:30:17 10° 199° (SSW) 1,070 3.3 -12.3°
Maximum altitude 11:31:12 12° 171° (S) 1,086 3.7 -12.1°
Drops below altitude 10° 11:32:21 10° 144° (SE) 1,399 4.7 -11.9°
Sets 11:36:47 0° 113° (ESE) 3,481 8.1 -11.0°
